Tracking 20710 objects as of 30-May-2020
HD Live streaming from Space Station
objects crossing your sky now

APRIZESAT 5

Track APRIZESAT 5 now!
10-day predictions
APRIZESAT 5 is classified as:


NORAD ID: 37792
Int'l Code: 2011-044E
Perigee: 610.8 km
Apogee: 691.3 km
Inclination: 98.4 °
Period: 97.6 minutes
Semi major axis: 7022 km
RCS: 0.107 m2 (medium)
Launch date: August 17, 2011
Source: United States (US)
Launch site: Orenburg, Russia (OREN)
aabbcc
Your satellite tracking list
Your tracking list is empty




NASA's NSSDC Master Catalog

Two Line Element Set (TLE):
1 37792U 11044E   20151.24538408  .00000039  00000-0  14178-4 0  9998
2 37792  98.4131 349.3547 0057292 223.6706 135.9961 14.75390914472800
Source of the keplerian elements: AFSPC